Time,TemperatureF,DewpointF,PressureIn,WindDirection,WindDirectionDegrees,WindSpeedMPH,WindSpeedGustMPH,Humidity,HourlyPrecipIn,Conditions,Clouds,dailyrainin,SoftwareType,DateUTC
2013-06-24 00:01:00,71.9,68.0,30.20,South,180,5.0,9.0,87,0.00,,,0.00,Rainwise IP-100,2013-06-24 04:01:00,
2013-06-24 00:06:00,71.8,68.0,30.20,SSE,157,3.0,8.0,89,0.00,,,0.00,Rainwise IP-100,2013-06-24 04:06:00,
2013-06-24 00:11:00,71.6,68.0,30.19,South,180,8.0,8.0,89,0.00,,,0.00,Rainwise IP-100,2013-06-24 04:11:00,
2013-06-24 00:16:00,71.6,68.0,30.19,SSE,157,9.0,10.0,89,0.00,,,0.00,Rainwise IP-100,2013-06-24 04:16:00,
2013-06-24 00:21:00,71.4,68.0,30.19,SSE,157,5.0,11.0,89,0.00,,,0.00,Rainwise IP-100,2013-06-24 04:21:00,
2013-06-24 00:26:00,71.4,68.0,30.18,SSW,202,7.0,9.0,89,0.00,,,0.00,Rainwise IP-100,2013-06-24 04:26:00,
2013-06-24 00:31:00,71.4,68.0,30.18,SSE,157,5.0,9.0,89,0.00,,,0.00,Rainwise IP-100,2013-06-24 04:31:00,
2013-06-24 00:36:00,71.3,68.0,30.18,SSW,202,7.0,11.0,89,0.00,,,0.00,Rainwise IP-100,2013-06-24 04:36:00,
2013-06-24 00:41:00,71.5,68.0,30.18,SSE,157,5.0,10.0,89,0.00,,,0.00,Rainwise IP-100,2013-06-24 04:41:00,
2013-06-24 00:46:00,71.6,68.0,30.18,SSW,202,7.0,12.0,89,0.00,,,0.00,Rainwise IP-100,2013-06-24 04:46:00,
2013-06-24 00:51:00,71.5,68.0,30.18,SSE,157,2.0,10.0,89,0.00,,,0.00,Rainwise IP-100,2013-06-24 04:51:00,
2013-06-24 00:56:00,71.3,68.0,30.18,SE,135,2.0,5.0,89,0.00,,,0.00,Rainwise IP-100,2013-06-24 04:56:00,
2013-06-24 01:01:00,71.3,68.0,30.19,SE,135,4.0,6.0,89,0.00,,,0.00,Rainwise IP-100,2013-06-24 05:01:00,
2013-06-24 01:06:00,70.9,67.5,30.19,SE,135,3.0,6.0,89,0.00,,,0.00,Rainwise IP-100,2013-06-24 05:06:00,
2013-06-24 01:11:00,70.8,68.0,30.19,SE,135,0.0,4.0,91,0.00,,,0.00,Rainwise IP-100,2013-06-24 05:11:00,
2013-06-24 01:16:00,70.6,67.5,30.18,SE,135,2.0,3.0,90,0.00,,,0.00,Rainwise IP-100,2013-06-24 05:16:00,
2013-06-24 01:21:00,70.4,67.5,30.18,ESE,112,2.0,5.0,91,0.00,,,0.00,Rainwise IP-100,2013-06-24 05:21:00,
2013-06-24 01:26:00,70.2,67.5,30.18,East,90,2.0,5.0,92,0.00,,,0.00,Rainwise IP-100,2013-06-24 05:26:00,
2013-06-24 01:31:00,70.1,67.5,30.18,ESE,112,1.0,4.0,92,0.00,,,0.00,Rainwise IP-100,2013-06-24 05:31:00,
2013-06-24 01:36:00,69.9,67.5,30.18,SE,135,1.0,5.0,92,0.00,,,0.00,Rainwise IP-100,2013-06-24 05:36:00,
2013-06-24 01:41:00,69.8,67.0,30.17,SE,135,0.0,2.0,92,0.00,,,0.00,Rainwise IP-100,2013-06-24 05:41:00,
2013-06-24 01:46:00,69.6,67.5,30.17,ENE,67,3.0,4.0,93,0.00,,,0.00,Rainwise IP-100,2013-06-24 05:46:00,
2013-06-24 01:51:00,69.2,67.5,30.17,NNE,22,6.0,6.0,94,0.00,,,0.00,Rainwise IP-100,2013-06-24 05:51:00,
2013-06-24 01:56:00,68.8,67.0,30.17,NNE,22,7.0,7.0,94,0.00,,,0.00,Rainwise IP-100,2013-06-24 05:56:00,
2013-06-24 02:01:00,68.7,67.0,30.17,NNE,22,2.0,7.0,95,0.00,,,0.00,Rainwise IP-100,2013-06-24 06:01:00,
2013-06-24 02:06:00,68.5,67.0,30.17,North,360,4.0,6.0,95,0.00,,,0.00,Rainwise IP-100,2013-06-24 06:06:00,
2013-06-24 02:11:00,68.2,66.7,30.17,North,360,4.0,4.0,95,0.00,,,0.00,Rainwise IP-100,2013-06-24 06:11:00,
2013-06-24 02:16:00,68.1,66.7,30.17,North,360,2.0,4.0,95,0.00,,,0.00,Rainwise IP-100,2013-06-24 06:16:00,
2013-06-24 02:21:00,68.0,66.7,30.17,North,360,0.0,4.0,95,0.00,,,0.00,Rainwise IP-100,2013-06-24 06:21:00,
2013-06-24 02:26:00,67.9,66.7,30.17,North,360,0.0,3.0,96,0.00,,,0.00,Rainwise IP-100,2013-06-24 06:26:00,
2013-06-24 02:31:00,67.8,66.7,30.17,North,360,0.0,3.0,96,0.00,,,0.00,Rainwise IP-100,2013-06-24 06:31:00,
2013-06-24 02:36:00,67.7,66.3,30.17,North,360,3.0,4.0,96,0.00,,,0.00,Rainwise IP-100,2013-06-24 06:36:00,
2013-06-24 02:41:00,67.6,66.3,30.17,North,360,0.0,4.0,96,0.00,,,0.00,Rainwise IP-100,2013-06-24 06:41:00,
2013-06-24 02:46:00,67.4,66.3,30.16,North,360,0.0,0.0,96,0.00,,,0.00,Rainwise IP-100,2013-06-24 06:46:00,
2013-06-24 02:51:00,67.3,66.3,30.16,North,360,0.0,1.0,96,0.00,,,0.00,Rainwise IP-100,2013-06-24 06:51:00,
2013-06-24 02:56:00,67.0,66.3,30.16,North,360,0.0,0.0,97,0.00,,,0.00,Rainwise IP-100,2013-06-24 06:56:00,
2013-06-24 03:01:00,66.9,66.7,30.16,North,360,0.0,0.0,98,0.00,,,0.00,Rainwise IP-100,2013-06-24 07:01:00,
2013-06-24 03:06:00,66.9,66.3,30.16,North,360,1.0,1.0,97,0.00,,,0.00,Rainwise IP-100,2013-06-24 07:06:00,
2013-06-24 03:11:00,66.9,66.7,30.16,North,360,0.0,3.0,98,0.00,,,0.00,Rainwise IP-100,2013-06-24 07:11:00,
2013-06-24 03:16:00,67.3,67.0,30.16,North,360,0.0,1.0,98,0.00,,,0.00,Rainwise IP-100,2013-06-24 07:16:00,
2013-06-24 03:21:00,67.4,67.0,30.16,North,360,0.0,0.0,98,0.00,,,0.00,Rainwise IP-100,2013-06-24 07:21:00,
2013-06-24 03:26:00,67.5,67.0,30.16,North,360,0.0,0.0,98,0.00,,,0.00,Rainwise IP-100,2013-06-24 07:26:00,
2013-06-24 03:31:00,67.4,67.0,30.16,North,360,0.0,2.0,98,0.00,,,0.00,Rainwise IP-100,2013-06-24 07:31:00,
2013-06-24 03:36:00,66.9,66.7,30.16,North,360,2.0,3.0,98,0.00,,,0.00,Rainwise IP-100,2013-06-24 07:36:00,
2013-06-24 03:41:00,66.6,66.3,30.16,North,360,0.0,3.0,98,0.00,,,0.00,Rainwise IP-100,2013-06-24 07:41:00,
2013-06-24 03:46:00,66.4,66.3,30.16,North,360,0.0,0.0,100,0.00,,,0.00,Rainwise IP-100,2013-06-24 07:46:00,
2013-06-24 03:51:00,66.3,66.0,30.16,North,360,0.0,0.0,99,0.00,,,0.00,Rainwise IP-100,2013-06-24 07:51:00,
2013-06-24 03:56:00,66.0,65.5,30.16,North,360,0.0,0.0,98,0.00,,,0.00,Rainwise IP-100,2013-06-24 07:56:00,
2013-06-24 04:01:00,65.9,65.5,30.16,North,360,0.0,0.0,99,0.00,,,0.00,Rainwise IP-100,2013-06-24 08:01:00,
2013-06-24 04:06:00,65.9,66.0,30.15,North,360,0.0,1.0,100,0.00,,,0.00,Rainwise IP-100,2013-06-24 08:06:00,
2013-06-24 04:11:00,66.1,66.0,30.16,North,360,0.0,1.0,100,0.00,,,0.00,Rainwise IP-100,2013-06-24 08:11:00,
2013-06-24 04:16:00,66.1,66.0,30.15,North,360,0.0,0.0,100,0.00,,,0.00,Rainwise IP-100,2013-06-24 08:16:00,
2013-06-24 04:21:00,66.1,66.0,30.16,North,360,0.0,0.0,100,0.00,,,0.00,Rainwise IP-100,2013-06-24 08:21:00,
2013-06-24 04:26:00,66.3,66.3,30.15,North,360,0.0,0.0,100,0.00,,,0.00,Rainwise IP-100,2013-06-24 08:26:00,
2013-06-24 04:31:00,66.1,66.0,30.15,North,360,0.0,1.0,100,0.00,,,0.00,Rainwise IP-100,2013-06-24 08:31:00,
2013-06-24 04:36:00,66.1,66.0,30.15,North,360,0.0,0.0,100,0.00,,,0.00,Rainwise IP-100,2013-06-24 08:36:00,
2013-06-24 04:41:00,65.9,66.0,30.15,North,360,0.0,3.0,100,0.00,,,0.00,Rainwise IP-100,2013-06-24 08:41:00,
2013-06-24 04:46:00,65.9,66.0,30.15,North,360,3.0,3.0,100,0.00,,,0.00,Rainwise IP-100,2013-06-24 08:46:00,
2013-06-24 04:51:00,65.5,65.5,30.15,North,360,3.0,4.0,100,0.00,,,0.00,Rainwise IP-100,2013-06-24 08:51:00,
2013-06-24 04:56:00,65.4,65.5,30.15,North,360,0.0,4.0,100,0.00,,,0.00,Rainwise IP-100,2013-06-24 08:56:00,
2013-06-24 05:01:00,65.4,65.5,30.15,North,360,0.0,1.0,100,0.00,,,0.00,Rainwise IP-100,2013-06-24 09:01:00,
2013-06-24 05:06:00,65.3,65.5,30.15,North,360,0.0,0.0,100,0.00,,,0.00,Rainwise IP-100,2013-06-24 09:06:00,
2013-06-24 05:11:00,65.3,65.5,30.15,North,360,0.0,0.0,100,0.00,,,0.00,Rainwise IP-100,2013-06-24 09:11:00,
2013-06-24 05:16:00,65.3,65.5,30.15,North,360,0.0,0.0,100,0.00,,,0.00,Rainwise IP-100,2013-06-24 09:16:00,
2013-06-24 05:20:00,65.4,65.5,30.15,North,360,0.0,1.0,100,0.00,,,0.00,Rainwise IP-100,2013-06-24 09:20:00,
2013-06-24 05:25:00,65.5,65.5,30.15,North,360,1.0,2.0,100,0.00,,,0.00,Rainwise IP-100,2013-06-24 09:25:00,
2013-06-24 05:30:00,65.5,65.5,30.15,North,360,0.0,2.0,100,0.00,,,0.00,Rainwise IP-100,2013-06-24 09:30:00,
2013-06-24 05:35:00,65.4,65.5,30.15,North,360,0.0,0.0,100,0.00,,,0.00,Rainwise IP-100,2013-06-24 09:35:00,
2013-06-24 05:40:00,65.1,65.0,30.15,North,360,0.0,0.0,100,0.00,,,0.00,Rainwise IP-100,2013-06-24 09:40:00,
2013-06-24 05:45:00,64.9,65.0,30.15,North,360,0.0,0.0,100,0.00,,,0.00,Rainwise IP-100,2013-06-24 09:45:00,
2013-06-24 05:50:00,64.9,65.0,30.16,North,360,0.0,0.0,100,0.00,,,0.00,Rainwise IP-100,2013-06-24 09:50:00,
2013-06-24 05:55:00,65.2,65.0,30.16,North,360,0.0,0.0,100,0.00,,,0.00,Rainwise IP-100,2013-06-24 09:55:00,
2013-06-24 06:00:00,65.6,65.5,30.16,North,360,0.0,3.0,100,0.00,,,0.00,Rainwise IP-100,2013-06-24 10:00:00,
2013-06-24 06:05:00,65.9,66.0,30.16,North,360,3.0,3.0,100,0.00,,,0.00,Rainwise IP-100,2013-06-24 10:05:00,
2013-06-24 06:10:00,65.9,66.0,30.16,North,360,3.0,6.0,100,0.00,,,0.00,Rainwise IP-100,2013-06-24 10:10:00,
2013-06-24 06:15:00,65.9,66.0,30.16,North,360,5.0,5.0,100,0.00,,,0.00,Rainwise IP-100,2013-06-24 10:15:00,
2013-06-24 06:20:00,65.9,66.0,30.16,NNE,22,2.0,5.0,100,0.00,,,0.00,Rainwise IP-100,2013-06-24 10:20:00,
2013-06-24 06:25:00,66.2,66.3,30.16,NNE,22,0.0,2.0,100,0.00,,,0.00,Rainwise IP-100,2013-06-24 10:25:00,
2013-06-24 06:30:00,66.1,66.0,30.16,NNE,22,0.0,2.0,100,0.00,,,0.00,Rainwise IP-100,2013-06-24 10:30:00,
2013-06-24 06:35:00,66.1,66.0,30.16,NNE,22,0.0,0.0,100,0.00,,,0.00,Rainwise IP-100,2013-06-24 10:35:00,
2013-06-24 06:40:00,66.1,66.0,30.16,NNE,22,0.0,1.0,100,0.00,,,0.00,Rainwise IP-100,2013-06-24 10:40:00,
2013-06-24 06:45:00,66.1,66.0,30.16,NNE,22,0.0,0.0,100,0.00,,,0.00,Rainwise IP-100,2013-06-24 10:45:00,
2013-06-24 06:50:00,66.1,66.0,30.16,NNE,22,0.0,0.0,100,0.00,,,0.00,Rainwise IP-100,2013-06-24 10:50:00,
2013-06-24 06:55:00,65.9,66.0,30.16,NNE,22,0.0,0.0,100,0.00,,,0.00,Rainwise IP-100,2013-06-24 10:55:00,
2013-06-24 07:00:00,66.7,66.7,30.17,NNE,22,0.0,2.0,100,0.00,,,0.00,Rainwise IP-100,2013-06-24 11:00:00,
2013-06-24 07:05:00,67.7,67.5,30.17,NNE,22,0.0,3.0,100,0.00,,,0.00,Rainwise IP-100,2013-06-24 11:05:00,
2013-06-24 07:10:00,68.8,69.0,30.17,NNE,22,0.0,0.0,100,0.00,,,0.00,Rainwise IP-100,2013-06-24 11:10:00,
2013-06-24 07:15:00,69.6,69.7,30.17,NNE,22,0.0,0.0,100,0.00,,,0.00,Rainwise IP-100,2013-06-24 11:15:00,
2013-06-24 07:20:00,70.4,70.5,30.18,NNE,22,0.0,1.0,100,0.00,,,0.00,Rainwise IP-100,2013-06-24 11:20:00,
2013-06-24 07:25:00,71.1,70.0,30.18,NNE,22,0.0,0.0,97,0.00,,,0.00,Rainwise IP-100,2013-06-24 11:25:00,
2013-06-24 07:30:00,71.9,70.0,30.18,NNE,22,0.0,0.0,94,0.00,,,0.00,Rainwise IP-100,2013-06-24 11:30:00,
2013-06-24 07:35:00,72.6,71.0,30.18,West,270,3.0,4.0,94,0.00,,,0.00,Rainwise IP-100,2013-06-24 11:35:00,
2013-06-24 07:40:00,73.3,71.0,30.18,West,270,1.0,6.0,91,0.00,,,0.00,Rainwise IP-100,2013-06-24 11:40:00,
2013-06-24 07:45:00,74.1,68.5,30.19,WSW,247,5.0,10.0,82,0.00,,,0.00,Rainwise IP-100,2013-06-24 11:45:00,
2013-06-24 07:50:00,75.2,70.0,30.19,WNW,292,0.0,6.0,84,0.00,,,0.00,Rainwise IP-100,2013-06-24 11:50:00,
2013-06-24 07:55:00,75.9,69.3,30.19,WSW,247,0.0,6.0,80,0.00,,,0.00,Rainwise IP-100,2013-06-24 11:55:00,
2013-06-24 08:00:00,76.3,69.0,30.19,West,270,2.0,11.0,78,0.00,,,0.00,Rainwise IP-100,2013-06-24 12:00:00,
2013-06-24 08:05:00,76.5,68.5,30.19,West,270,7.0,9.0,76,0.00,,,0.00,Rainwise IP-100,2013-06-24 12:05:00,
2013-06-24 08:10:00,76.2,67.0,30.20,WNW,292,9.0,10.0,74,0.00,,,0.00,Rainwise IP-100,2013-06-24 12:10:00,
2013-06-24 08:15:00,76.5,68.5,30.19,WNW,292,4.0,10.0,76,0.00,,,0.00,Rainwise IP-100,2013-06-24 12:15:00,
2013-06-24 08:20:00,77.1,69.0,30.20,SW,225,6.0,10.0,75,0.00,,,0.00,Rainwise IP-100,2013-06-24 12:20:00,
2013-06-24 08:25:00,76.8,67.0,30.20,WSW,247,9.0,13.0,72,0.00,,,0.00,Rainwise IP-100,2013-06-24 12:25:00,
2013-06-24 08:30:00,76.7,67.0,30.20,WSW,247,12.0,12.0,72,0.00,,,0.00,Rainwise IP-100,2013-06-24 12:30:00,
2013-06-24 08:35:00,76.9,67.0,30.20,NW,315,7.0,12.0,71,0.00,,,0.00,Rainwise IP-100,2013-06-24 12:35:00,
2013-06-24 08:40:00,76.7,66.7,30.20,West,270,7.0,12.0,71,0.00,,,0.00,Rainwise IP-100,2013-06-24 12:40:00,
2013-06-24 08:45:00,76.9,67.0,30.20,WSW,247,5.0,10.0,71,0.00,,,0.00,Rainwise IP-100,2013-06-24 12:45:00,
2013-06-24 08:50:00,77.5,68.0,30.20,West,270,7.0,12.0,72,0.00,,,0.00,Rainwise IP-100,2013-06-24 12:50:00,
2013-06-24 08:55:00,78.1,67.5,30.20,WNW,292,3.0,9.0,70,0.00,,,0.00,Rainwise IP-100,2013-06-24 12:55:00,
2013-06-24 09:00:00,78.7,67.0,30.20,WNW,292,2.0,9.0,68,0.00,,,0.00,Rainwise IP-100,2013-06-24 13:00:00,
2013-06-24 09:05:00,78.4,68.0,30.20,West,270,5.0,11.0,70,0.00,,,0.00,Rainwise IP-100,2013-06-24 13:05:00,
2013-06-24 09:10:00,78.6,67.5,30.20,North,360,0.0,11.0,69,0.00,,,0.00,Rainwise IP-100,2013-06-24 13:10:00,
2013-06-24 09:15:00,79.1,66.7,30.21,North,360,1.0,12.0,66,0.00,,,0.00,Rainwise IP-100,2013-06-24 13:15:00,
2013-06-24 09:20:00,78.9,67.0,30.21,West,270,4.0,13.0,67,0.00,,,0.00,Rainwise IP-100,2013-06-24 13:20:00,
2013-06-24 09:25:00,78.2,68.5,30.20,West,270,3.0,16.0,71,0.00,,,0.00,Rainwise IP-100,2013-06-24 13:25:00,
2013-06-24 09:30:00,79.1,67.0,30.20,SSW,202,2.0,10.0,67,0.00,,,0.00,Rainwise IP-100,2013-06-24 13:30:00,
2013-06-24 09:35:00,78.6,67.0,30.20,WNW,292,8.0,11.0,68,0.00,,,0.00,Rainwise IP-100,2013-06-24 13:35:00,
2013-06-24 09:40:00,78.3,67.5,30.21,SW,225,6.0,12.0,69,0.00,,,0.00,Rainwise IP-100,2013-06-24 13:40:00,
2013-06-24 09:45:00,79.1,68.0,30.21,West,270,3.0,13.0,69,0.00,,,0.00,Rainwise IP-100,2013-06-24 13:45:00,
2013-06-24 09:50:00,79.5,68.0,30.21,WNW,292,6.0,12.0,68,0.00,,,0.00,Rainwise IP-100,2013-06-24 13:50:00,
2013-06-24 09:55:00,79.5,67.0,30.20,WSW,247,9.0,15.0,66,0.00,,,0.00,Rainwise IP-100,2013-06-24 13:55:00,
2013-06-24 10:00:00,79.7,67.0,30.20,WSW,247,8.0,12.0,66,0.00,,,0.00,Rainwise IP-100,2013-06-24 14:00:00,
2013-06-24 10:05:00,80.4,68.0,30.20,SW,225,4.0,12.0,66,0.00,,,0.00,Rainwise IP-100,2013-06-24 14:05:00,
2013-06-24 10:10:00,80.2,67.0,30.20,North,360,1.0,13.0,64,0.00,,,0.00,Rainwise IP-100,2013-06-24 14:10:00,
2013-06-24 10:15:00,80.2,68.5,30.20,WNW,292,1.0,13.0,67,0.00,,,0.00,Rainwise IP-100,2013-06-24 14:15:00,
2013-06-24 10:20:00,80.8,68.5,30.20,West,270,0.0,12.0,66,0.00,,,0.00,Rainwise IP-100,2013-06-24 14:20:00,
2013-06-24 10:25:00,81.3,68.0,30.20,WSW,247,7.0,12.0,64,0.00,,,0.00,Rainwise IP-100,2013-06-24 14:25:00,
2013-06-24 10:30:00,80.9,67.0,30.20,WSW,247,4.0,13.0,63,0.00,,,0.00,Rainwise IP-100,2013-06-24 14:30:00,
2013-06-24 10:35:00,81.0,68.5,30.20,WSW,247,9.0,13.0,65,0.00,,,0.00,Rainwise IP-100,2013-06-24 14:35:00,
2013-06-24 10:40:00,81.1,67.0,30.20,WSW,247,9.0,13.0,63,0.00,,,0.00,Rainwise IP-100,2013-06-24 14:40:00,
2013-06-24 10:45:00,80.8,68.5,30.20,WSW,247,11.0,13.0,66,0.00,,,0.00,Rainwise IP-100,2013-06-24 14:45:00,
2013-06-24 10:50:00,80.8,67.5,30.20,SSW,202,5.0,12.0,64,0.00,,,0.00,Rainwise IP-100,2013-06-24 14:50:00,
2013-06-24 10:55:00,80.8,67.5,30.20,WNW,292,2.0,12.0,64,0.00,,,0.00,Rainwise IP-100,2013-06-24 14:55:00,
2013-06-24 11:00:00,81.3,69.0,30.20,SSW,202,8.0,11.0,66,0.00,,,0.00,Rainwise IP-100,2013-06-24 15:00:00,
2013-06-24 11:05:00,81.7,69.0,30.20,WSW,247,6.0,13.0,65,0.00,,,0.00,Rainwise IP-100,2013-06-24 15:05:00,
2013-06-24 11:10:00,82.5,69.3,30.20,WNW,292,4.0,12.0,64,0.00,,,0.00,Rainwise IP-100,2013-06-24 15:10:00,
2013-06-24 11:15:00,83.2,68.5,30.20,West,270,4.0,12.0,61,0.00,,,0.00,Rainwise IP-100,2013-06-24 15:15:00,
2013-06-24 11:20:00,83.5,69.7,30.21,West,270,6.0,12.0,63,0.00,,,0.00,Rainwise IP-100,2013-06-24 15:20:00,
2013-06-24 11:25:00,83.9,69.7,30.21,WSW,247,8.0,14.0,62,0.00,,,0.00,Rainwise IP-100,2013-06-24 15:25:00,
2013-06-24 11:30:00,82.4,67.5,30.21,WSW,247,2.0,16.0,61,0.00,,,0.00,Rainwise IP-100,2013-06-24 15:30:00,
2013-06-24 11:35:00,82.7,68.5,30.21,WSW,247,6.0,12.0,62,0.00,,,0.00,Rainwise IP-100,2013-06-24 15:35:00,
2013-06-24 11:40:00,83.3,68.5,30.21,SSE,157,4.0,15.0,61,0.00,,,0.00,Rainwise IP-100,2013-06-24 15:40:00,
2013-06-24 11:45:00,83.8,68.5,30.21,WSW,247,5.0,15.0,60,0.00,,,0.00,Rainwise IP-100,2013-06-24 15:45:00,
2013-06-24 11:50:00,83.8,69.0,30.20,NNW,337,9.0,14.0,61,0.00,,,0.00,Rainwise IP-100,2013-06-24 15:50:00,
2013-06-24 11:55:00,84.9,68.5,30.20,NW,315,4.0,10.0,58,0.00,,,0.00,Rainwise IP-100,2013-06-24 15:55:00,
2013-06-24 12:00:00,84.9,69.0,30.20,WSW,247,4.0,12.0,59,0.00,,,0.00,Rainwise IP-100,2013-06-24 16:00:00,
2013-06-24 12:05:00,84.3,68.5,30.20,NW,315,3.0,12.0,59,0.00,,,0.00,Rainwise IP-100,2013-06-24 16:05:00,
2013-06-24 12:10:00,83.4,68.5,30.20,WSW,247,7.0,13.0,60,0.00,,,0.00,Rainwise IP-100,2013-06-24 16:10:00,
2013-06-24 12:15:00,82.9,69.0,30.20,West,270,3.0,12.0,62,0.00,,,0.00,Rainwise IP-100,2013-06-24 16:15:00,
2013-06-24 12:20:00,82.9,69.0,30.20,SSW,202,8.0,12.0,62,0.00,,,0.00,Rainwise IP-100,2013-06-24 16:20:00,
2013-06-24 12:25:00,82.8,69.3,30.20,WNW,292,2.0,11.0,64,0.00,,,0.00,Rainwise IP-100,2013-06-24 16:25:00,
2013-06-24 12:30:00,83.6,69.7,30.20,West,270,5.0,12.0,63,0.00,,,0.00,Rainwise IP-100,2013-06-24 16:30:00,
2013-06-24 12:35:00,82.6,68.0,30.20,SW,225,7.0,12.0,62,0.00,,,0.00,Rainwise IP-100,2013-06-24 16:35:00,
2013-06-24 12:40:00,82.2,68.5,30.20,West,270,6.0,13.0,63,0.00,,,0.00,Rainwise IP-100,2013-06-24 16:40:00,
2013-06-24 12:45:00,82.8,68.5,30.20,SSW,202,4.0,15.0,62,0.00,,,0.00,Rainwise IP-100,2013-06-24 16:45:00,
2013-06-24 12:50:00,82.8,69.0,30.21,SSW,202,9.0,11.0,63,0.00,,,0.00,Rainwise IP-100,2013-06-24 16:50:00,
2013-06-24 12:55:00,82.9,69.3,30.20,WSW,247,10.0,10.0,63,0.00,,,0.00,Rainwise IP-100,2013-06-24 16:55:00,
2013-06-24 13:00:00,82.9,69.7,30.20,WSW,247,6.0,13.0,64,0.00,,,0.00,Rainwise IP-100,2013-06-24 17:00:00,
2013-06-24 13:05:00,82.8,69.0,30.20,WSW,247,8.0,10.0,63,0.00,,,0.00,Rainwise IP-100,2013-06-24 17:05:00,
2013-06-24 13:06:00,82.6,68.0,30.20,West,270,8.0,10.0,62,0.00,,,0.00,Rainwise IP-100,2013-06-24 17:06:00,
2013-06-24 13:11:00,82.5,69.3,30.20,WSW,247,7.0,13.0,64,0.00,,,0.00,Rainwise IP-100,2013-06-24 17:11:00,
2013-06-24 13:16:00,83.0,69.7,30.20,West,270,4.0,8.0,64,0.00,,,0.00,Rainwise IP-100,2013-06-24 17:16:00,
2013-06-24 13:21:00,83.2,70.0,30.20,WSW,247,4.0,10.0,64,0.00,,,0.00,Rainwise IP-100,2013-06-24 17:21:00,
2013-06-24 13:26:00,82.8,69.3,30.20,SW,225,7.0,13.0,64,0.00,,,0.00,Rainwise IP-100,2013-06-24 17:26:00,
2013-06-24 13:31:00,83.2,69.3,30.20,South,180,9.0,12.0,63,0.00,,,0.00,Rainwise IP-100,2013-06-24 17:31:00,
2013-06-24 13:36:00,83.4,69.3,30.20,SSW,202,7.0,12.0,62,0.00,,,0.00,Rainwise IP-100,2013-06-24 17:36:00,
2013-06-24 13:41:00,84.1,70.0,30.19,WSW,247,5.0,9.0,63,0.00,,,0.00,Rainwise IP-100,2013-06-24 17:41:00,
2013-06-24 13:46:00,84.3,70.5,30.19,SW,225,3.0,10.0,63,0.00,,,0.00,Rainwise IP-100,2013-06-24 17:46:00,
2013-06-24 13:51:00,84.6,71.0,30.19,SW,225,8.0,9.0,63,0.00,,,0.00,Rainwise IP-100,2013-06-24 17:51:00,
2013-06-24 13:56:00,83.9,70.0,30.18,West,270,3.0,9.0,63,0.00,,,0.00,Rainwise IP-100,2013-06-24 17:56:00,
2013-06-24 14:01:00,84.3,70.5,30.18,SSE,157,0.0,6.0,63,0.00,,,0.00,Rainwise IP-100,2013-06-24 18:01:00,
2013-06-24 14:06:00,84.7,69.7,30.18,West,270,3.0,9.0,61,0.00,,,0.00,Rainwise IP-100,2013-06-24 18:06:00,
2013-06-24 14:11:00,84.4,70.5,30.18,SSW,202,3.0,10.0,63,0.00,,,0.00,Rainwise IP-100,2013-06-24 18:11:00,
2013-06-24 14:16:00,84.1,69.3,30.18,WSW,247,6.0,10.0,61,0.00,,,0.00,Rainwise IP-100,2013-06-24 18:16:00,
2013-06-24 14:21:00,84.5,69.7,30.18,WSW,247,5.0,9.0,61,0.00,,,0.00,Rainwise IP-100,2013-06-24 18:21:00,
2013-06-24 14:26:00,85.4,69.0,30.17,West,270,4.0,10.0,58,0.00,,,0.00,Rainwise IP-100,2013-06-24 18:26:00,
2013-06-24 14:31:00,85.1,69.0,30.17,West,270,9.0,9.0,59,0.00,,,0.00,Rainwise IP-100,2013-06-24 18:31:00,
2013-06-24 14:36:00,84.7,69.0,30.17,West,270,2.0,12.0,59,0.00,,,0.00,Rainwise IP-100,2013-06-24 18:36:00,
2013-06-24 14:41:00,84.6,69.7,30.17,West,270,2.0,12.0,61,0.00,,,0.00,Rainwise IP-100,2013-06-24 18:41:00,
2013-06-24 14:46:00,83.7,69.0,30.17,WSW,247,9.0,14.0,61,0.00,,,0.00,Rainwise IP-100,2013-06-24 18:46:00,
2013-06-24 14:51:00,82.8,69.3,30.17,West,270,9.0,13.0,64,0.00,,,0.00,Rainwise IP-100,2013-06-24 18:51:00,
2013-06-24 14:56:00,82.6,69.3,30.16,SSW,202,0.0,12.0,64,0.00,,,0.00,Rainwise IP-100,2013-06-24 18:56:00,
2013-06-24 15:01:00,82.2,69.7,30.16,SW,225,0.0,10.0,66,0.00,,,0.00,Rainwise IP-100,2013-06-24 19:01:00,
2013-06-24 15:06:00,82.9,70.5,30.16,West,270,5.0,7.0,66,0.00,,,0.00,Rainwise IP-100,2013-06-24 19:06:00,
2013-06-24 15:11:00,84.2,70.5,30.16,SSW,202,8.0,8.0,63,0.00,,,0.00,Rainwise IP-100,2013-06-24 19:11:00,
2013-06-24 15:16:00,84.5,71.0,30.15,SW,225,6.0,9.0,63,0.00,,,0.00,Rainwise IP-100,2013-06-24 19:16:00,
2013-06-24 15:21:00,85.3,70.0,30.15,SSW,202,4.0,13.0,61,0.00,,,0.00,Rainwise IP-100,2013-06-24 19:21:00,
2013-06-24 15:26:00,85.9,70.5,30.15,SSW,202,6.0,9.0,60,0.00,,,0.00,Rainwise IP-100,2013-06-24 19:26:00,
2013-06-24 15:31:00,86.0,69.0,30.15,WSW,247,8.0,10.0,57,0.00,,,0.00,Rainwise IP-100,2013-06-24 19:31:00,
2013-06-24 15:36:00,85.6,69.7,30.14,South,180,9.0,13.0,59,0.00,,,0.00,Rainwise IP-100,2013-06-24 19:36:00,
2013-06-24 15:41:00,85.9,68.5,30.14,SSW,202,6.0,13.0,56,0.00,,,0.00,Rainwise IP-100,2013-06-24 19:41:00,
2013-06-24 15:46:00,85.8,68.0,30.13,SE,135,5.0,10.0,56,0.00,,,0.00,Rainwise IP-100,2013-06-24 19:46:00,
2013-06-24 15:51:00,84.9,68.0,30.13,WSW,247,6.0,11.0,57,0.00,,,0.00,Rainwise IP-100,2013-06-24 19:51:00,
2013-06-24 15:56:00,85.2,69.3,30.12,WSW,247,6.0,12.0,59,0.00,,,0.00,Rainwise IP-100,2013-06-24 19:56:00,
2013-06-24 16:01:00,85.8,70.0,30.12,West,270,2.0,7.0,60,0.00,,,0.00,Rainwise IP-100,2013-06-24 20:01:00,
2013-06-24 16:06:00,86.6,70.0,30.12,SSE,157,1.0,8.0,58,0.00,,,0.00,Rainwise IP-100,2013-06-24 20:06:00,
2013-06-24 16:11:00,87.8,71.7,30.13,SW,225,9.0,9.0,59,0.00,,,0.00,Rainwise IP-100,2013-06-24 20:11:00,
2013-06-24 16:16:00,86.3,69.0,30.14,WSW,247,10.0,14.0,56,0.00,,,0.00,Rainwise IP-100,2013-06-24 20:16:00,
2013-06-24 16:21:00,84.3,68.5,30.14,SSW,202,9.0,15.0,59,0.00,,,0.00,Rainwise IP-100,2013-06-24 20:21:00,
2013-06-24 16:26:00,83.8,68.5,30.14,WSW,247,9.0,12.0,60,0.00,,,0.00,Rainwise IP-100,2013-06-24 20:26:00,
2013-06-24 16:31:00,83.0,68.5,30.13,WSW,247,7.0,12.0,61,0.00,,,0.00,Rainwise IP-100,2013-06-24 20:31:00,
2013-06-24 16:36:00,82.2,66.3,30.13,West,270,7.0,15.0,59,0.00,,,0.00,Rainwise IP-100,2013-06-24 20:36:00,
2013-06-24 16:41:00,79.7,65.0,30.14,NNW,337,6.0,20.0,61,0.00,,,0.00,Rainwise IP-100,2013-06-24 20:41:00,
2013-06-24 16:46:00,78.2,60.5,30.14,WNW,292,4.0,16.0,54,0.00,,,0.00,Rainwise IP-100,2013-06-24 20:46:00,
2013-06-24 16:51:00,77.0,59.0,30.14,NW,315,0.0,17.0,53,0.00,,,0.00,Rainwise IP-100,2013-06-24 20:51:00,
2013-06-24 16:56:00,73.6,62.5,30.14,West,270,9.0,15.0,68,0.00,,,0.00,Rainwise IP-100,2013-06-24 20:56:00,
2013-06-24 17:01:00,68.4,62.5,30.14,WNW,292,5.0,15.0,82,0.06,,,0.01,Rainwise IP-100,2013-06-24 21:01:00,
2013-06-24 17:06:00,66.4,63.5,30.15,WSW,247,11.0,15.0,90,0.06,,,0.02,Rainwise IP-100,2013-06-24 21:06:00,
2013-06-24 17:11:00,66.0,64.5,30.16,SW,225,7.0,17.0,96,0.06,,,0.02,Rainwise IP-100,2013-06-24 21:11:00,
2013-06-24 17:16:00,65.3,64.0,30.16,WSW,247,10.0,18.0,95,0.12,,,0.03,Rainwise IP-100,2013-06-24 21:16:00,
2013-06-24 17:21:00,64.8,64.5,30.15,South,180,2.0,10.0,98,0.06,,,0.04,Rainwise IP-100,2013-06-24 21:21:00,
2013-06-24 17:26:00,64.7,64.0,30.14,ESE,112,0.0,5.0,98,0.06,,,0.04,Rainwise IP-100,2013-06-24 21:26:00,
2013-06-24 17:31:00,64.9,64.0,30.12,NW,315,4.0,6.0,96,0.12,,,0.05,Rainwise IP-100,2013-06-24 21:31:00,
2013-06-24 17:36:00,65.1,64.5,30.12,North,360,6.0,8.0,99,0.06,,,0.05,Rainwise IP-100,2013-06-24 21:36:00,
2013-06-24 17:41:00,65.1,64.5,30.12,NNW,337,4.0,9.0,99,0.06,,,0.06,Rainwise IP-100,2013-06-24 21:41:00,
2013-06-24 17:46:00,65.1,64.5,30.12,NNW,337,1.0,6.0,98,0.06,,,0.06,Rainwise IP-100,2013-06-24 21:46:00,
2013-06-24 17:51:00,65.2,64.5,30.12,North,360,4.0,5.0,98,0.06,,,0.07,Rainwise IP-100,2013-06-24 21:51:00,
2013-06-24 17:56:00,65.4,65.0,30.12,North,360,3.0,7.0,98,0.06,,,0.07,Rainwise IP-100,2013-06-24 21:56:00,
2013-06-24 18:01:00,65.5,65.0,30.12,North,360,2.0,7.0,98,0.06,,,0.08,Rainwise IP-100,2013-06-24 22:01:00,
2013-06-24 18:06:00,65.7,65.0,30.12,WNW,292,3.0,7.0,98,0.06,,,0.08,Rainwise IP-100,2013-06-24 22:06:00,
2013-06-24 18:11:00,65.9,65.5,30.12,SE,135,4.0,6.0,99,0.06,,,0.09,Rainwise IP-100,2013-06-24 22:11:00,
2013-06-24 18:16:00,66.3,66.3,30.13,SSE,157,0.0,4.0,100,0.06,,,0.09,Rainwise IP-100,2013-06-24 22:16:00,
2013-06-24 18:21:00,66.3,66.3,30.13,West,270,0.0,4.0,100,0.00,,,0.10,Rainwise IP-100,2013-06-24 22:21:00,
2013-06-24 18:26:00,66.4,66.3,30.12,West,270,0.0,2.0,100,0.06,,,0.10,Rainwise IP-100,2013-06-24 22:26:00,
2013-06-24 18:31:00,66.6,66.7,30.12,West,270,0.0,2.0,100,0.06,,,0.10,Rainwise IP-100,2013-06-24 22:31:00,
2013-06-24 18:36:00,66.6,66.3,30.12,WNW,292,2.0,5.0,99,0.06,,,0.11,Rainwise IP-100,2013-06-24 22:36:00,
2013-06-24 18:41:00,66.6,66.3,30.12,WNW,292,6.0,7.0,98,0.06,,,0.11,Rainwise IP-100,2013-06-24 22:41:00,
2013-06-24 18:46:00,66.8,66.3,30.15,West,270,9.0,25.0,98,0.00,,,0.11,Rainwise IP-100,2013-06-24 22:46:00,
2013-06-24 18:51:00,67.4,66.3,30.14,SW,225,2.0,19.0,95,0.06,,,0.12,Rainwise IP-100,2013-06-24 22:51:00,
2013-06-24 18:56:00,67.6,66.3,30.15,WSW,247,4.0,20.0,95,0.06,,,0.12,Rainwise IP-100,2013-06-24 22:56:00,
2013-06-24 19:01:00,67.3,66.3,30.15,West,270,11.0,21.0,95,0.00,,,0.12,Rainwise IP-100,2013-06-24 23:01:00,
2013-06-24 19:06:00,66.8,65.5,30.15,SSW,202,1.0,19.0,96,0.00,,,0.13,Rainwise IP-100,2013-06-24 23:06:00,
2013-06-24 19:11:00,66.3,65.0,30.14,WSW,247,9.0,17.0,96,0.06,,,0.13,Rainwise IP-100,2013-06-24 23:11:00,
2013-06-24 19:16:00,65.7,65.0,30.15,WNW,292,6.0,15.0,98,0.06,,,0.13,Rainwise IP-100,2013-06-24 23:16:00,
2013-06-24 19:21:00,65.4,65.0,30.14,NW,315,15.0,22.0,98,0.00,,,0.13,Rainwise IP-100,2013-06-24 23:21:00,
2013-06-24 19:26:00,65.3,65.0,30.14,WNW,292,5.0,17.0,98,0.06,,,0.14,Rainwise IP-100,2013-06-24 23:26:00,
2013-06-24 19:31:00,65.3,65.0,30.14,North,360,0.0,17.0,98,0.06,,,0.14,Rainwise IP-100,2013-06-24 23:31:00,
2013-06-24 19:36:00,65.3,65.0,30.15,NNW,337,3.0,8.0,98,0.00,,,0.14,Rainwise IP-100,2013-06-24 23:36:00,
2013-06-24 19:41:00,65.2,64.5,30.15,NNW,337,6.0,7.0,98,0.06,,,0.15,Rainwise IP-100,2013-06-24 23:41:00,
2013-06-24 19:46:00,65.2,64.5,30.14,North,360,0.0,7.0,98,0.06,,,0.15,Rainwise IP-100,2013-06-24 23:46:00,
2013-06-24 19:51:00,65.3,65.0,30.14,NNE,22,0.0,1.0,98,0.00,,,0.15,Rainwise IP-100,2013-06-24 23:51:00,
2013-06-24 19:56:00,65.3,65.0,30.14,NNE,22,0.0,0.0,99,0.00,,,0.15,Rainwise IP-100,2013-06-24 23:56:00,
2013-06-24 20:01:00,65.3,65.0,30.14,NNE,22,0.0,0.0,99,0.06,,,0.16,Rainwise IP-100,2013-06-25 00:01:00,
2013-06-24 20:06:00,65.2,64.5,30.14,NNE,22,2.0,3.0,99,0.06,,,0.16,Rainwise IP-100,2013-06-25 00:06:00,
2013-06-24 20:11:00,65.2,64.5,30.14,NNE,22,0.0,3.0,99,0.00,,,0.16,Rainwise IP-100,2013-06-25 00:11:00,
2013-06-24 20:16:00,65.2,64.5,30.13,WNW,292,2.0,6.0,98,0.00,,,0.16,Rainwise IP-100,2013-06-25 00:16:00,
2013-06-24 20:21:00,65.0,64.5,30.13,WNW,292,0.0,4.0,99,0.06,,,0.17,Rainwise IP-100,2013-06-25 00:21:00,
2013-06-24 20:26:00,64.9,65.0,30.13,NNW,337,4.0,5.0,100,0.06,,,0.17,Rainwise IP-100,2013-06-25 00:26:00,
2013-06-24 20:31:00,64.9,64.5,30.12,NNW,337,2.0,5.0,99,0.00,,,0.17,Rainwise IP-100,2013-06-25 00:31:00,
2013-06-24 20:36:00,64.9,65.0,30.12,NNW,337,0.0,4.0,100,0.00,,,0.17,Rainwise IP-100,2013-06-25 00:36:00,
2013-06-24 20:41:00,64.8,64.5,30.12,North,360,0.0,0.0,98,0.06,,,0.18,Rainwise IP-100,2013-06-25 00:41:00,
2013-06-24 20:46:00,64.9,64.5,30.12,WSW,247,6.0,7.0,99,0.06,,,0.18,Rainwise IP-100,2013-06-25 00:46:00,
2013-06-24 20:51:00,64.9,65.0,30.12,WSW,247,0.0,7.0,100,0.00,,,0.18,Rainwise IP-100,2013-06-25 00:51:00,
2013-06-24 20:56:00,64.8,65.0,30.12,ENE,67,2.0,3.0,100,0.00,,,0.18,Rainwise IP-100,2013-06-25 00:56:00,
2013-06-24 21:01:00,64.9,65.0,30.12,East,90,0.0,5.0,100,0.00,,,0.18,Rainwise IP-100,2013-06-25 01:01:00,
2013-06-24 21:06:00,64.7,64.5,30.12,East,90,0.0,2.0,100,0.06,,,0.19,Rainwise IP-100,2013-06-25 01:06:00,
2013-06-24 21:11:00,64.7,64.5,30.12,WSW,247,6.0,6.0,100,0.06,,,0.19,Rainwise IP-100,2013-06-25 01:11:00,
2013-06-24 21:16:00,64.4,64.5,30.12,WSW,247,0.0,7.0,100,0.00,,,0.19,Rainwise IP-100,2013-06-25 01:16:00,
2013-06-24 21:21:00,64.2,64.0,30.12,NNW,337,0.0,6.0,100,0.00,,,0.19,Rainwise IP-100,2013-06-25 01:21:00,
2013-06-24 21:26:00,64.3,64.5,30.11,NE,45,1.0,5.0,100,0.00,,,0.19,Rainwise IP-100,2013-06-25 01:26:00,
2013-06-24 21:31:00,64.2,64.0,30.11,NE,45,0.0,3.0,100,0.06,,,0.20,Rainwise IP-100,2013-06-25 01:31:00,
2013-06-24 21:36:00,63.9,64.0,30.11,NE,45,0.0,1.0,100,0.06,,,0.20,Rainwise IP-100,2013-06-25 01:36:00,
2013-06-24 21:41:00,63.8,64.0,30.11,ESE,112,2.0,4.0,100,0.00,,,0.20,Rainwise IP-100,2013-06-25 01:41:00,
2013-06-24 21:46:00,63.8,64.0,30.11,South,180,0.0,5.0,100,0.00,,,0.20,Rainwise IP-100,2013-06-25 01:46:00,
2013-06-24 21:51:00,63.8,64.0,30.11,South,180,0.0,1.0,100,0.00,,,0.20,Rainwise IP-100,2013-06-25 01:51:00,
2013-06-24 21:56:00,63.8,64.0,30.11,WNW,292,5.0,6.0,100,0.00,,,0.20,Rainwise IP-100,2013-06-25 01:56:00,
2013-06-24 22:01:00,63.6,63.5,30.11,North,360,0.0,6.0,100,0.06,,,0.21,Rainwise IP-100,2013-06-25 02:01:00,
2013-06-24 22:06:00,63.5,63.5,30.11,ESE,112,3.0,4.0,100,0.06,,,0.21,Rainwise IP-100,2013-06-25 02:06:00,
2013-06-24 22:11:00,63.5,63.5,30.11,SSE,157,2.0,6.0,100,0.00,,,0.21,Rainwise IP-100,2013-06-25 02:11:00,
2013-06-24 22:16:00,63.5,63.5,30.11,SSE,157,0.0,5.0,100,0.00,,,0.21,Rainwise IP-100,2013-06-25 02:16:00,
2013-06-24 22:21:00,63.5,63.5,30.11,NNW,337,1.0,5.0,100,0.00,,,0.21,Rainwise IP-100,2013-06-25 02:21:00,
2013-06-24 22:26:00,63.5,63.5,30.10,NNW,337,0.0,3.0,100,0.00,,,0.21,Rainwise IP-100,2013-06-25 02:26:00,
2013-06-24 22:31:00,63.6,63.5,30.10,NNW,337,1.0,0.0,100,0.06,,,0.22,Rainwise IP-100,2013-06-25 02:31:00,
2013-06-24 22:36:00,63.6,63.5,30.10,NNW,337,3.0,5.0,100,0.06,,,0.22,Rainwise IP-100,2013-06-25 02:36:00,
2013-06-24 22:41:00,63.6,63.5,30.10,North,360,0.0,5.0,100,0.00,,,0.22,Rainwise IP-100,2013-06-25 02:41:00,
2013-06-24 22:46:00,63.6,63.5,30.10,North,360,0.0,0.0,100,0.00,,,0.22,Rainwise IP-100,2013-06-25 02:46:00,
2013-06-24 22:51:00,63.6,63.5,30.10,ESE,112,1.0,5.0,100,0.00,,,0.22,Rainwise IP-100,2013-06-25 02:51:00,
2013-06-24 22:56:00,63.6,63.5,30.11,SSE,157,6.0,6.0,100,0.00,,,0.22,Rainwise IP-100,2013-06-25 02:56:00,
2013-06-24 23:01:00,63.9,64.0,30.12,SSW,202,1.0,7.0,100,0.00,,,0.22,Rainwise IP-100,2013-06-25 03:01:00,
2013-06-24 23:06:00,64.1,64.0,30.11,WSW,247,5.0,6.0,100,0.06,,,0.23,Rainwise IP-100,2013-06-25 03:06:00,
2013-06-24 23:11:00,63.9,64.0,30.12,SSW,202,2.0,6.0,100,0.06,,,0.23,Rainwise IP-100,2013-06-25 03:11:00,
2013-06-24 23:16:00,64.1,64.0,30.11,SSW,202,5.0,5.0,100,0.00,,,0.23,Rainwise IP-100,2013-06-25 03:16:00,
2013-06-24 23:21:00,64.3,64.5,30.12,WNW,292,0.0,5.0,100,0.00,,,0.23,Rainwise IP-100,2013-06-25 03:21:00,
2013-06-24 23:26:00,64.3,64.5,30.12,East,90,6.0,6.0,100,0.00,,,0.23,Rainwise IP-100,2013-06-25 03:26:00,
2013-06-24 23:31:00,64.4,64.5,30.12,ESE,112,4.0,7.0,100,0.00,,,0.23,Rainwise IP-100,2013-06-25 03:31:00,
2013-06-24 23:36:00,64.5,64.5,30.12,SSE,157,5.0,7.0,100,0.00,,,0.23,Rainwise IP-100,2013-06-25 03:36:00,
2013-06-24 23:41:00,64.4,64.5,30.12,SSE,157,2.0,7.0,100,0.00,,,0.24,Rainwise IP-100,2013-06-25 03:41:00,
2013-06-24 23:46:00,64.4,64.5,30.12,West,270,2.0,5.0,100,0.06,,,0.24,Rainwise IP-100,2013-06-25 03:46:00,
2013-06-24 23:51:00,64.5,64.5,30.12,WNW,292,4.0,6.0,100,0.06,,,0.24,Rainwise IP-100,2013-06-25 03:51:00,
2013-06-24 23:56:00,64.4,64.5,30.12,WNW,292,0.0,6.0,100,0.00,,,0.24,Rainwise IP-100,2013-06-25 03:56:00,